KC7FQC Weather Reports


time (UTC)temp
F
wind
direction
speed
knots
gust
knots
rain 1hr
in
rain 24hr
in
rain mn
in
humidity
%
barometer
mb
20191115144110 54 67 0.0 0.0 0.00 0.00 0.00 58 1017.0
20191115143626 54 67 0.0 0.9 0.00 0.00 0.00 59 1016.9
20191115143110 54 67 0.0 0.9 0.00 0.00 0.00 58 1016.9
20191115142611 54 27 0.0 0.0 0.00 0.00 0.00 58 1016.9
20191115142129 54 49 0.0 0.0 0.00 0.00 0.00 57 1016.8
20191115141626 54 172 0.0 0.0 0.00 0.00 0.00 58 1016.8
20191115141126 54 172 0.0 0.0 0.00 0.00 0.00 59 1016.8
20191115140626 53 172 0.0 1.7 0.00 0.00 0.00 59 1016.8
20191115140126 53 172 0.0 1.7 0.00 0.00 0.00 60 1016.7
20191115135610 53 172 0.0 1.7 0.00 0.00 0.00 60 1016.7
20191115135126 53 172 0.0 0.0 0.00 0.00 0.00 62 1016.7
20191115134611 53 172 0.0 0.0 0.00 0.00 0.00 64 1016.7
20191115134110 53 172 0.0 0.0 0.00 0.00 0.00 63 1016.8
20191115133610 53 172 0.0 0.0 0.00 0.00 0.00 63 1016.8
20191115133125 53 172 0.0 0.0 0.00 0.00 0.00 62 1016.7
20191115132610 53 172 0.0 0.0 0.00 0.00 0.00 62 1016.7
20191115132110 53 172 0.0 0.0 0.00 0.00 0.00 62 1016.7
20191115131626 53 172 0.0 0.0 0.00 0.00 0.00 62 1016.6
20191115131110 53 172 0.0 0.0 0.00 0.00 0.00 62 1016.5
20191115130610 53 172 0.0 0.0 0.00 0.00 0.00 61 1016.5
20191115130112 53 172 0.0 0.0 0.00 0.00 0.00 61 1016.5
20191115125610 53 172 0.0 0.0 0.00 0.00 0.00 61 1016.7
20191115125126 53 172 0.0 0.0 0.00 0.00 0.00 61 1016.7
20191115124626 53 172 0.0 0.9 0.00 0.00 0.00 61 1016.7
20191115124111 53 172 0.0 0.9 0.00 0.00 0.00 61 1016.7
20191115123610 53 172 0.0 0.0 0.00 0.00 0.00 61 1016.6
20191115123126 53 172 0.0 0.0 0.00 0.00 0.00 61 1016.6
20191115122626 53 172 0.0 0.0 0.00 0.00 0.00 62 1016.6
20191115122126 53 172 0.0 0.0 0.00 0.00 0.00 61 1016.6
20191115121626 53 172 0.0 0.9 0.00 0.00 0.00 61 1016.6
20191115121110 53 172 0.0 0.9 0.00 0.00 0.00 61 1016.5
20191115120611 53 172 0.0 0.0 0.00 0.00 0.00 61 1016.6
20191115120126 53 172 0.0 0.0 0.00 0.00 0.00 61 1016.6
20191115115610 53 172 0.0 0.0 0.00 0.00 0.00 61 1016.8
20191115115125 54 172 0.0 0.0 0.00 0.00 0.00 61 1016.9
20191115114610 54 172 0.0 0.0 0.00 0.00 0.00 60 1016.9
20191115114126 54 172 0.0 0.0 0.00 0.00 0.00 60 1016.9
20191115113610 54 172 0.0 0.0 0.00 0.00 0.00 59 1016.8
20191115113125 55 172 0.0 0.0 0.00 0.00 0.00 58 1016.7
20191115112610 55 172 0.0 0.0 0.00 0.00 0.00 58 1016.6
20191115112125 55 172 0.0 0.0 0.00 0.00 0.00 58 1016.6
20191115111625 55 172 0.0 0.0 0.00 0.00 0.00 56 1016.5
20191115111110 56 172 0.0 0.0 0.00 0.00 0.00 56 1016.7
20191115110610 56 172 0.0 0.0 0.00 0.00 0.00 56 1016.6
20191115110126 56 172 0.0 0.0 0.00 0.00 0.00 54 1016.7
20191115105610 56 172 0.0 0.0 0.00 0.00 0.00 54 1016.7
20191115105110 56 172 0.0 0.0 0.00 0.00 0.00 53 1016.7
20191115104625 56 172 0.0 0.0 0.00 0.00 0.00 53 1016.8
20191115104125 56 172 0.0 0.0 0.00 0.00 0.00 54 1016.8
20191115103610 56 172 0.0 0.0 0.00 0.00 0.00 53 1016.8
20191115103110 56 172 0.0 0.0 0.00 0.00 0.00 53 1016.8
20191115102625 56 172 0.0 0.0 0.00 0.00 0.00 52 1016.9
20191115102110 56 172 0.0 0.0 0.00 0.00 0.00 53 1017.0
20191115101610 56 172 0.0 0.0 0.00 0.00 0.00 52 1017.0
20191115101125 57 172 0.0 0.0 0.00 0.00 0.00 52 1017.0
20191115100625 57 172 0.0 0.0 0.00 0.00 0.00 53 1017.1
20191115100125 57 172 0.0 0.0 0.00 0.00 0.00 53 1017.1
20191115095625 57 172 0.0 0.0 0.00 0.00 0.00 53 1017.1
20191115095110 57 172 0.0 0.0 0.00 0.00 0.00 52 1017.1
20191115094610 57 172 0.0 0.0 0.00 0.00 0.00 50 1017.2
20191115094125 57 172 0.0 0.0 0.00 0.00 0.00 50 1017.1
20191115093610 58 172 0.0 1.7 0.00 0.00 0.00 50 1017.1
20191115093110 57 172 0.0 1.7 0.00 0.00 0.00 50 1017.0
20191115092610 57 172 0.9 1.7 0.00 0.00 0.00 51 1017.1
20191115092126 57 172 0.0 0.9 0.00 0.00 0.00 52 1017.1
20191115091625 57 172 0.0 0.9 0.00 0.00 0.00 52 1017.1
20191115091110 57 172 0.0 0.9 0.00 0.00 0.00 52 1017.1
20191115090625 57 172 0.0 0.0 0.00 0.00 0.00 52 1017.1
20191115090110 57 172 0.0 0.0 0.00 0.00 0.00 53 1017.1
20191115085610 57 172 0.0 0.0 0.00 0.00 0.00 53 1016.9
20191115085110 57 172 0.0 0.0 0.00 0.00 0.00 52 1016.9
20191115084610 57 172 0.0 0.0 0.00 0.00 0.00 53 1016.9
20191115084125 57 172 0.0 0.0 0.00 0.00 0.00 52 1016.9
20191115083610 58 172 0.0 0.0 0.00 0.00 0.00 53 1017.1
20191115083110 58 172 0.0 0.0 0.00 0.00 0.00 53 1017.0
20191115082626 58 172 0.0 0.0 0.00 0.00 0.00 52 1016.9
20191115082125 58 172 0.0 0.0 0.00 0.00 0.00 52 1017.0
20191115081610 58 172 0.0 0.0 0.00 0.00 0.00 51 1017.1
20191115081125 58 172 0.0 0.0 0.00 0.00 0.00 51 1017.1
20191115080610 58 172 0.0 0.0 0.00 0.00 0.00 50 1017.1
20191115080110 58 172 0.0 0.0 0.00 0.00 0.00 50 1017.1
20191115075625 58 172 0.0 0.0 0.00 0.00 0.00 50 1017.1
20191115075125 59 172 0.0 0.0 0.00 0.00 0.00 50 1017.2
20191115074625 59 172 0.0 0.0 0.00 0.00 0.00 49 1017.1
20191115074125 59 172 0.0 0.0 0.00 0.00 0.00 49 1017.0
20191115073610 60 172 0.0 0.0 0.00 0.00 0.00 48 1017.1
20191115073126 60 172 0.0 0.0 0.00 0.00 0.00 47 1017.2
20191115072610 60 172 0.0 0.0 0.00 0.00 0.00 47 1017.3
20191115072110 60 172 0.0 0.0 0.00 0.00 0.00 47 1017.2
20191115071625 60 172 0.0 0.0 0.00 0.00 0.00 46 1017.1
20191115071110 61 172 0.0 0.0 0.00 0.00 0.00 46 1017.0
20191115070610 61 172 0.0 0.9 0.00 0.00 0.00 47 1016.9
20191115070125 61 172 0.0 0.9 0.00 0.00 0.00 46 1016.8
20191115065625 61 172 0.0 0.9 0.00 0.00 0.00 46 1016.8
20191115065110 61 172 0.0 0.9 0.00 0.00 0.00 46 1016.9
20191115064610 61 172 0.9 0.9 0.00 0.00 0.00 46 1016.9
20191115064125 60 172 0.0 0.0 0.00 0.00 0.00 47 1016.9
20191115063610 60 172 0.0 0.0 0.00 0.00 0.00 47 1016.8
20191115063110 60 172 0.0 0.0 0.00 0.00 0.00 47 1016.9
20191115062610 61 172 0.0 0.0 0.00 0.00 0.00 47 1017.0
20191115062125 61 172 0.0 0.9 0.00 0.00 0.00 47 1017.0
20191115061610 61 172 0.0 1.7 0.00 0.00 0.00 47 1017.1
20191115061110 61 172 0.0 1.7 0.00 0.00 0.00 47 1017.0
20191115060625 61 172 0.0 0.9 0.00 0.00 0.00 47 1016.9
20191115060125 61 172 0.0 0.0 0.00 0.00 0.00 47 1017.0
20191115055610 62 172 0.0 0.0 0.00 0.00 0.00 46 1016.8
20191115055110 62 172 0.0 0.9 0.00 0.00 0.00 45 1016.7
20191115054610 62 172 0.0 1.7 0.00 0.00 0.00 45 1016.7
20191115054110 62 172 0.9 2.6 0.00 0.00 0.00 45 1016.7
20191115053610 62 172 1.7 2.6 0.00 0.00 0.00 45 1016.7
20191115053125 62 172 0.9 1.7 0.00 0.00 0.00 45 1016.7
20191115052625 62 172 0.9 1.7 0.00 0.00 0.00 46 1016.7
20191115052110 62 172 0.0 1.7 0.00 0.00 0.00 46 1016.7
20191115051610 62 172 0.0 1.7 0.00 0.00 0.00 45 1016.6
20191115051125 63 172 0.9 1.7 0.00 0.00 0.00 45 1016.6
20191115050627 63 172 0.0 1.7 0.00 0.00 0.00 45 1016.6
20191115050125 63 172 0.0 0.0 0.00 0.00 0.00 45 1016.5
20191115045610 63 172 0.0 0.0 0.00 0.00 0.00 45 1016.3
20191115045110 63 172 0.0 0.0 0.00 0.00 0.00 46 1016.3
20191115044610 63 172 0.0 0.0 0.00 0.00 0.00 46 1016.3
20191115044109 63 172 0.0 0.0 0.00 0.00 0.00 47 1016.4
20191115043625 63 172 0.0 0.0 0.00 0.00 0.00 48 1016.4
20191115043125 63 172 0.0 0.0 0.00 0.00 0.00 48 1016.4
20191115042626 63 172 0.0 0.0 0.00 0.00 0.00 48 1016.3
20191115042110 63 172 0.0 0.0 0.00 0.00 0.00 49 1016.3
20191115041609 64 172 0.0 0.0 0.00 0.00 0.00 50 1016.4
20191115041125 64 172 0.0 0.0 0.00 0.00 0.00 49 1016.3
20191115040609 64 172 0.0 0.0 0.00 0.00 0.00 49 1016.3
20191115040124 64 172 0.0 0.0 0.00 0.00 0.00 49 1016.2
20191115035625 64 172 0.0 0.0 0.00 0.00 0.00 48 1015.8
20191115035125 64 172 0.0 0.0 0.00 0.00 0.00 48 1015.8
20191115034609 65 172 0.0 0.0 0.00 0.00 0.00 48 1015.9
20191115034125 65 172 0.0 0.0 0.00 0.00 0.00 47 1015.9
20191115033625 65 172 0.0 0.0 0.00 0.00 0.00 47 1015.8
20191115033109 65 172 0.0 0.0 0.00 0.00 0.00 47 1015.7
20191115032625 65 172 0.0 0.0 0.00 0.00 0.00 47 1015.6
20191115032109 66 172 0.0 0.0 0.00 0.00 0.00 46 1015.6
20191115031625 66 172 0.0 0.0 0.00 0.00 0.00 46 1015.6
20191115031109 66 172 0.0 0.0 0.00 0.00 0.00 45 1015.6
20191115030609 66 172 0.0 0.0 0.00 0.00 0.00 44 1015.6
20191115030109 66 172 0.0 0.0 0.00 0.00 0.00 44 1015.5
20191115025609 66 172 0.0 0.0 0.00 0.00 0.00 44 1015.0
20191115025109 67 172 0.0 0.0 0.00 0.00 0.00 43 1015.1
20191115024609 67 172 0.0 0.0 0.00 0.00 0.00 43 1015.2
20191115024109 67 172 0.0 0.0 0.00 0.00 0.00 42 1015.2
20191115023625 67 172 0.0 0.0 0.00 0.00 0.00 42 1015.1
20191115023109 68 172 0.0 0.0 0.00 0.00 0.00 42 1015.1
20191115022625 68 172 0.0 0.0 0.00 0.00 0.00 41 1015.1
20191115022109 68 172 0.0 0.0 0.00 0.00 0.00 41 1015.0
20191115021609 69 172 0.0 0.0 0.00 0.00 0.00 41 1015.0
20191115021109 69 172 0.0 0.0 0.00 0.00 0.00 40 1015.0
20191115020609 70 172 0.0 0.0 0.00 0.00 0.00 39 1015.0
20191115020109 70 172 0.0 0.0 0.00 0.00 0.00 39 1015.0
20191115015625 71 172 0.0 0.0 0.00 0.00 0.00 38 1014.8
20191115015109 71 172 0.0 0.0 0.00 0.00 0.00 38 1014.7
20191115014625 71 172 0.0 0.0 0.00 0.00 0.00 37 1014.6
20191115014109 72 172 0.0 0.0 0.00 0.00 0.00 36 1014.6
20191115013625 72 172 0.0 0.0 0.00 0.00 0.00 35 1014.6
20191115013125 73 172 0.0 0.0 0.00 0.00 0.00 35 1014.6
20191115012609 73 172 0.0 0.0 0.00 0.00 0.00 35 1014.7
20191115012109 74 172 0.0 0.0 0.00 0.00 0.00 32 1014.7
20191115011625 74 172 0.0 0.0 0.00 0.00 0.00 33 1014.6
20191115011125 75 172 0.0 0.0 0.00 0.00 0.00 32 1014.6
20191115010609 76 172 0.0 0.0 0.00 0.00 0.00 31 1014.6
20191115010125 76 172 0.0 0.0 0.00 0.00 0.00 30 1014.7
20191115005609 77 172 0.0 0.0 0.00 0.00 0.00 29 1014.8
20191115005125 77 172 0.0 0.0 0.00 0.00 0.00 29 1014.8
20191115004610 78 172 0.0 0.0 0.00 0.00 0.00 28 1014.7
20191115004109 78 172 0.0 0.0 0.00 0.00 0.00 28 1014.7
20191115003625 79 172 0.0 0.0 0.00 0.00 0.00 27 1014.8
20191115003110 80 172 0.0 0.0 0.00 0.00 0.00 27 1014.7
20191115002625 80 172 0.0 0.0 0.00 0.00 0.00 26 1014.9
20191115002109 81 172 0.0 0.0 0.00 0.00 0.00 25 1014.8
20191115001625 81 172 0.0 0.0 0.00 0.00 0.00 23 1014.6
20191115001125 81 172 0.0 0.0 0.00 0.00 0.00 23 1014.6
20191115000609 82 172 0.0 0.0 0.00 0.00 0.00 22 1014.6
20191115000125 82 172 0.0 0.0 0.00 0.00 0.00 22 1014.6
20191114235625 82 172 0.0 0.9 0.00 0.00 0.00 22 1014.6
20191114235109 82 172 0.0 1.7 0.00 0.00 0.00 22 1014.6
20191114234609 82 172 0.0 1.7 0.00 0.00 0.00 21 1014.6
20191114234109 82 172 0.0 0.0 0.00 0.00 0.00 22 1014.6
20191114233625 83 172 0.0 0.0 0.00 0.00 0.00 21 1014.7
20191114233125 83 172 0.0 0.0 0.00 0.00 0.00 21 1014.7
20191114232609 83 172 0.0 0.9 0.00 0.00 0.00 21 1014.7
20191114232124 83 172 0.0 1.7 0.00 0.00 0.00 21 1014.6
20191114231609 83 172 0.0 2.6 0.00 0.00 0.00 21 1014.6
20191114231109 83 172 1.7 2.6 0.00 0.00 0.00 21 1014.6
20191114230624 83 172 0.9 2.6 0.00 0.00 0.00 21 1014.6
20191114230124 84 172 0.9 2.6 0.00 0.00 0.00 21 1014.6
20191114225609 84 172 0.0 1.7 0.00 0.00 0.00 21 1014.6
20191114225125 84 172 0.0 2.6 0.00 0.00 0.00 21 1014.7
20191114224625 84 172 0.0 2.6 0.00 0.00 0.00 21 1014.8
20191114224125 84 172 0.9 2.6 0.00 0.00 0.00 22 1014.9
20191114223624 83 172 0.9 3.5 0.00 0.00 0.00 21 1015.0
20191114223110 83 172 0.0 3.5 0.00 0.00 0.00 22 1014.9
20191114222625 83 172 0.0 3.5 0.00 0.00 0.00 22 1014.9
20191114222109 83 172 2.6 3.5 0.00 0.00 0.00 21 1014.7
20191114221609 84 172 2.6 3.5 0.00 0.00 0.00 21 1014.8
20191114221109 84 172 1.7 2.6 0.00 0.00 0.00 21 1014.8
20191114220609 85 172 0.9 4.3 0.00 0.00 0.00 21 1015.0
20191114220109 85 172 0.0 4.3 0.00 0.00 0.00 21 1015.2
20191114215609 85 171 0.9 2.6 0.00 0.00 0.00 21 1015.0
20191114215124 85 171 0.0 2.6 0.00 0.00 0.00 21 1015.3
20191114214624 85 171 0.0 4.3 0.00 0.00 0.00 20 1015.2
20191114214109 85 171 0.9 4.3 0.00 0.00 0.00 20 1015.3
20191114213609 85 170 2.6 2.6 0.00 0.00 0.00 21 1015.3
20191114213124 84 170 1.7 2.6 0.00 0.00 0.00 21 1015.3
20191114212609 84 170 1.7 2.6 0.00 0.00 0.00 21 1015.4
20191114212124 84 170 0.0 3.5 0.00 0.00 0.00 21 1015.3
20191114211609 83 170 0.9 3.5 0.00 0.00 0.00 22 1015.4
20191114211109 83 170 2.6 3.5 0.00 0.00 0.00 22 1015.4
20191114210625 83 170 1.7 3.5 0.00 0.00 0.00 21 1015.6
20191114210109 84 170 3.5 3.5 0.00 0.00 0.00 21 1015.6
20191114205609 84 171 1.7 3.5 0.00 0.00 0.00 21 1015.6
20191114205109 84 171 0.9 3.5 0.00 0.00 0.00 21 1015.7
20191114204609 83 171 1.7 4.3 0.00 0.00 0.00 22 1015.7
20191114204124 84 171 0.0 4.3 0.00 0.00 0.00 21 1015.8
20191114203609 85 171 2.6 4.3 0.00 0.00 0.00 21 1016.0
20191114203109 85 171 1.7 3.5 0.00 0.00 0.00 21 1016.2
20191114202609 84 171 2.6 4.3 0.00 0.00 0.00 21 1016.2
20191114202109 84 171 0.0 4.3 0.00 0.00 0.00 21 1016.2
20191114201609 83 170 0.9 4.3 0.00 0.00 0.00 22 1016.2
20191114201109 83 170 2.6 4.3 0.00 0.00 0.00 22 1016.3
20191114200609 82 170 0.0 2.6 0.00 0.00 0.00 23 1016.2
20191114200109 82 170 0.0 3.5 0.00 0.00 0.00 23 1016.1
20191114195624 82 170 1.7 5.2 0.00 0.00 0.00 23 1016.4
20191114195109 82 170 1.7 5.2 0.00 0.00 0.00 24 1016.4
20191114194625 82 170 1.7 5.2 0.00 0.00 0.00 24 1016.5
20191114194109 81 170 4.3 5.2 0.00 0.00 0.00 24 1016.5
20191114193624 81 169 0.0 5.2 0.00 0.00 0.00 24 1016.8
20191114193109 82 169 2.6 4.3 0.00 0.00 0.00 24 1016.9
20191114192624 82 169 0.0 5.2 0.00 0.00 0.00 24 1016.9
20191114192109 81 169 2.6 5.2 0.00 0.00 0.00 25 1017.0
20191114191625 81 169 1.7 3.5 0.00 0.00 0.00 26 1017.2
20191114191109 80 169 3.5 3.5 0.00 0.00 0.00 26 1017.4
20191114190624 80 169 0.0 1.7 0.00 0.00 0.00 26 1017.4
20191114190109 79 169 1.7 4.3 0.00 0.00 0.00 27 1017.4
20191114185609 78 169 0.0 4.3 0.00 0.00 0.00 28 1017.5
20191114185109 77 169 2.6 4.3 0.00 0.00 0.00 29 1017.5
20191114184609 76 169 2.6 4.3 0.00 0.00 0.00 29 1017.5
20191114184124 76 170 0.9 3.5 0.00 0.00 0.00 29 1017.6
20191114183624 76 171 2.6 4.3 0.00 0.00 0.00 29 1017.7
20191114183124 75 171 2.6 4.3 0.00 0.00 0.00 30 1017.6
20191114182609 75 171 1.7 4.3 0.00 0.00 0.00 30 1017.7
20191114182124 75 172 1.7 5.2 0.00 0.00 0.00 30 1017.7
20191114181609 75 173 0.9 5.2 0.00 0.00 0.00 30 1017.7
20191114181109 75 209 1.7 4.3 0.00 0.00 0.00 30 1017.9
20191114180624 75 214 0.9 4.3 0.00 0.00 0.00 30 1018.0
20191114180109 76 216 0.0 2.6 0.00 0.00 0.00 30 1018.0
20191114175624 76 216 0.9 2.6 0.00 0.00 0.00 30 1018.1
20191114175109 76 216 0.0 2.6 0.00 0.00 0.00 30 1018.2
20191114174609 75 216 1.7 2.6 0.00 0.00 0.00 31 1018.3
20191114174124 75 216 1.7 1.7 0.00 0.00 0.00 31 1018.3
20191114173608 74 216 0.0 1.7 0.00 0.00 0.00 32 1018.2
20191114173124 74 216 0.0 1.7 0.00 0.00 0.00 32 1018.1
20191114172624 74 216 0.9 2.6 0.00 0.00 0.00 33 1018.2
20191114172109 73 216 0.0 2.6 0.00 0.00 0.00 33 1018.3
20191114171624 72 216 0.9 3.5 0.00 0.00 0.00 34 1018.2
20191114171124 72 216 0.0 3.5 0.00 0.00 0.00 34 1018.2
20191114170608 71 216 1.7 2.6 0.00 0.00 0.00 36 1018.3
20191114170124 71 216 0.0 3.5 0.00 0.00 0.00 36 1018.2
20191114165608 70 216 0.9 3.5 0.00 0.00 0.00 37 1018.2
20191114165109 69 216 0.0 2.6 0.00 0.00 0.00 38 1018.2
20191114164609 69 216 1.7 3.5 0.00 0.00 0.00 38 1018.1
20191114164124 69 216 1.7 3.5 0.00 0.00 0.00 37 1018.2
20191114163608 69 216 0.9 2.6 0.00 0.00 0.00 38 1018.1
20191114163124 69 216 0.9 1.7 0.00 0.00 0.00 38 1018.0
20191114162608 68 216 0.0 1.7 0.00 0.00 0.00 38 1017.9
20191114162124 68 216 0.0 0.0 0.00 0.00 0.00 39 1017.8
20191114161608 68 216 0.0 0.0 0.00 0.00 0.00 40 1017.8
20191114161108 67 216 0.0 0.0 0.00 0.00 0.00 41 1017.6
20191114160608 67 216 0.0 0.0 0.00 0.00 0.00 42 1017.6
20191114160109 65 216 0.0 0.0 0.00 0.00 0.00 43 1017.5
20191114155624 65 216 0.0 0.0 0.00 0.00 0.00 44 1017.4
20191114155108 64 216 0.0 0.0 0.00 0.00 0.00 45 1017.4
20191114154609 63 216 0.0 0.0 0.00 0.00 0.00 47 1017.3
20191114154108 62 216 0.0 0.9 0.00 0.00 0.00 49 1017.2
20191114153608 60 216 0.0 0.9 0.00 0.00 0.00 50 1017.0
20191114153124 60 216 0.9 1.7 0.00 0.00 0.00 52 1016.9
20191114152624 59 216 0.0 1.7 0.00 0.00 0.00 52 1016.7
20191114152109 58 216 0.0 0.0 0.00 0.00 0.00 53 1016.7
20191114151608 57 216 0.0 0.9 0.00 0.00 0.00 55 1016.7
20191114151108 57 216 0.0 0.9 0.00 0.00 0.00 56 1016.7
20191114150609 56 216 0.0 1.7 0.00 0.00 0.00 58 1016.5
20191114150108 55 216 0.0 1.7 0.00 0.00 0.00 60 1016.3
20191114145624 54 216 0.0 0.0 0.00 0.00 0.00 62 1016.5
20191114145108 53 216 0.0 0.0 0.00 0.00 0.00 65 1016.3
20191114144639 53 216 0.0 0.0 0.00 0.00 0.00 66 1016.3